Regional Weather Roundup
Issued by NWS

Home | Current Version | Previous Version | Text Only | Print | Product List | Glossary On
Versions: 1 2 3 4 5 6 7 8 9 10 11 12 13 14 15 16 17 18 19 20 21 22 23 24 25 26 27
000
ASUS42 KFFC 282303
RWRGA
WEATHER ROUNDUP FOR GEORGIA
NATIONAL WEATHER SERVICE PEACHTREE CITY GA
700 PM EDT SUN AUG 28 2016

NOTE: "FAIR" INDICATES FEW OR NO CLOUDS BELOW 12,000 FEET WITH NO
SIGNIFICANT WEATHER AND/OR OBSTRUCTIONS TO VISIBILITY.

* = USE WITH CAUTION. THE STATIONS MARKED WITH AN ASTERISK MAY NOT
REPORT WEATHER SUCH AS PRECIPITATION, FOG, OR THUNDER AND ARE NOT
QUALITY CONTROLLED BY NWS.

THE REMARK "TC" DENOTES TEMPERATURE READING IN DEGREES CELSIUS.

GAZ001>058-290000-
NORTH GEORGIA

CITY           SKY/WX    TMP DP  RH WIND       PRES   REMARKS
ATLANTA        MOSUNNY   89  67  47 E10       30.06F HX  92
ATHENS         SUNNY     88  73  61 NE6       30.07S HX  95
CHAMBLEE       SUNNY     89  67  47 VRB5      30.07S HX  92
PEACHTREE CITY SUNNY     91  68  46 VRB7      30.05S HX  95
ROME           CLOUDY    81  75  82 N5        30.06S
WEST ATLANTA   MOSUNNY   91  67  44 NE7       30.05F HX  94
GAINESVILLE    SUNNY     85  69  58 E6        30.12S
CARTERSVILLE   MOSUNNY   86  70  58 NE10      30.06F HX  90


CITY           SKY/WX    TMP DP  RH WIND       PRES   REMARKS
DALTON*        CLOUDY    77  73  88 NW3       30.08S
LAWRENCEVILLE* MOSUNNY   88  72  58 NE8       30.08S HX  94
MARIETTA       PTSUNNY   89  67  48 VRB5      30.07S HX  92
KENNESAW*      MOSUNNY   90  66  45 SE6       30.02S HX  92
CANTON*        MOSUNNY  N/A N/A N/A CALM      30.10F
BLAIRSVILLE*     N/A    N/A N/A N/A MISG      30.16S
$$

GAZ059>098-102>109-290000-
CENTRAL GEORGIA

CITY           SKY/WX    TMP DP  RH WIND       PRES   REMARKS
AUGUSTA-BUSH   PTSUNNY   92  67  43 E8        30.01R HX  95
AUGUSTA-DANIEL MOSUNNY   94  64  37 NE8       30.04R HX  95
COLUMBUS       PTSUNNY   93  66  40 E14       29.99S HX  96
MACON          MOSUNNY   93  64  38 NE7       30.00S HX  94
ROBINS AFB     MOSUNNY   92  67  43 E8        29.99S HX  95


CITY           SKY/WX    TMP DP  RH WIND       PRES   REMARKS
LAGRANGE*      SUNNY     92  73  52 E3        30.03R HX 101
MILLEDGEVILLE* PTSUNNY   91  72  52 CALM      30.03R HX  98
$$

GAZ099>101-110>166-290000-
SOUTH GEORGIA

CITY           SKY/WX    TMP DP  RH WIND       PRES   REMARKS
SAVANNAH       CLOUDY    86  73  65 E9        30.02F HX  93
VALDOSTA       MOSUNNY   89  73  59 NE9       29.97S HX  97
ALMA           SUNNY     90  66  45 E9        29.99R HX  92
ST SIMONS      MOSUNNY   85  74  69 E12       30.01S HX  92
FT STEWART     CLOUDY    88  66  48 E7        30.00R HX  90
ALBANY         MOSUNNY   93  64  38 SE8       29.99S HX  94
HUNTER AFB     CLOUDY    84  79  84 E12       30.00S HX  96
MOODY AFB      MOSUNNY   86  72  62 E12       29.98R HX  92
BRUNSWICK      MOSUNNY   86  77  74 E13       30.02R HX  97


CITY           SKY/WX    TMP DP  RH WIND       PRES   REMARKS
BAINBRIDGE*    SUNNY     91  64  40 E12       29.97R HX  93
MOULTRIE*      MOSUNNY   91  64  40 E7        29.98S HX  93
VIDALIA*       MOSUNNY   86  77  74 E10       30.02R HX  97
WAYCROSS*        N/A     91  76  62 SE10      30.00R HX 102
DOUGLAS*       SUNNY     86  72  62 S3        30.01S HX  92
$$




USA.gov is the U.S. government's official web portal to all federal, state and local government web resources and services.